Location: Pic du Midi - T1M
(42.9366°N, 0.1426°E)
Time: 17:47:20
(UTC+01:00)

Nauka - Pass Details

Date: 03 October 2021
Orbit: 417 x 423 km, 51.6° (Epoch: 24 October)

Event Time Altitude Azimuth Distance (km) Brightness Sun altitude
Rises 20:54:21 0° 295° (WNW) 2,358 ? -25.6°
Reaches altitude 10° 20:56:38 10° 283° (WNW) 1,492 ? -26.0°
Enters shadow 20:58:26 22° 256° (WSW) 958 ? -26.3°
